| time (UTC) | temp C | wind direction | speed KPH | gust KPH | rain 1hr cm | rain 24hr cm | rain mn cm | humidity % | barometer mb |
| 20260509112014 | 9 | 152 | 0.0 | 0.0 | 0.00 | 0.00 | 0.00 | 81 | 999.7 |
| 20260509111041 | 9 | 161 | 1.6 | 3.2 | 0.00 | 0.00 | 0.00 | 81 | 999.9 |
| 20260509110027 | 9 | 163 | 1.6 | 3.2 | 0.00 | 0.00 | 0.00 | 82 | 1000.1 |
| 20260509105006 | 8 | 161 | 0.0 | 0.0 | 0.00 | 0.00 | 0.00 | 82 | 999.7 |
| 20260509104007 | 8 | 169 | 1.6 | 3.2 | 0.00 | 0.00 | 0.00 | 82 | 999.9 |
| 20260509103031 | 7 | 169 | 0.0 | 0.0 | 0.00 | 0.00 | 0.00 | 82 | 1000.0 |
| 20260509102024 | 7 | 169 | 0.0 | 0.0 | 0.00 | 0.00 | 0.00 | 80 | 1000.1 |
| 20260509101025 | 6 | 170 | 0.0 | 0.0 | 0.00 | 0.00 | 0.00 | 80 | 999.7 |
| 20260509100025 | 6 | 170 | 0.0 | 0.0 | 0.00 | 0.00 | 0.00 | 79 | 999.9 |
| 20260509095022 | 6 | 170 | 0.0 | 0.0 | 0.00 | 0.00 | 0.00 | 77 | 1000.0 |
| 20260509094027 | 6 | 170 | 0.0 | 0.0 | 0.00 | 0.00 | 0.00 | 75 | 999.9 |
| 20260509093034 | 6 | 170 | 0.0 | 0.0 | 0.00 | 0.00 | 0.00 | 71 | 999.9 |
| 20260509092014 | 7 | 167 | 0.0 | 0.0 | 0.00 | 0.00 | 0.00 | 68 | 1000.1 |
| 20260509091040 | 7 | 167 | 1.6 | 3.2 | 0.00 | 0.00 | 0.00 | 65 | 1000.0 |
| 20260509085044 | 8 | 152 | 0.0 | 0.0 | 0.00 | 0.00 | 0.00 | 63 | 1000.2 |
| 20260509084021 | 8 | 171 | 1.6 | 3.2 | 0.00 | 0.00 | 0.00 | 63 | 1000.1 |
| 20260509083008 | 7 | 150 | 0.0 | 0.0 | 0.00 | 0.00 | 0.00 | 65 | 1000.3 |
| 20260509082029 | 7 | 164 | 0.0 | 0.0 | 0.00 | 0.00 | 0.00 | 64 | 1000.6 |
| 20260509081017 | 7 | 161 | 0.0 | 0.0 | 0.00 | 0.00 | 0.00 | 65 | 1000.7 |
| 20260509080022 | 7 | 167 | 0.0 | 0.0 | 0.00 | 0.00 | 0.00 | 66 | 1000.7 |
| 20260509075012 | 6 | 172 | 1.6 | 3.2 | 0.00 | 0.00 | 0.00 | 70 | 1000.7 |
| 20260509074036 | 6 | 169 | 1.6 | 3.2 | 0.00 | 0.00 | 0.00 | 68 | 1000.7 |
| 20260509072021 | 5 | 169 | 0.0 | 0.0 | 0.00 | 0.00 | 0.00 | 69 | 1000.7 |
| 20260509071035 | 5 | 169 | 0.0 | 0.0 | 0.00 | 0.00 | 0.00 | 69 | 1000.8 |
| 20260509070013 | 6 | 169 | 0.0 | 0.0 | 0.00 | 0.00 | 0.00 | 69 | 1001.1 |
| 20260509065019 | 6 | 161 | 0.0 | 0.0 | 0.00 | 0.00 | 0.00 | 70 | 1001.2 |
| 20260509064020 | 6 | 162 | 0.0 | 0.0 | 0.00 | 0.00 | 0.00 | 70 | 1001.0 |
| 20260509063044 | 6 | 162 | 0.0 | 0.0 | 0.00 | 0.00 | 0.00 | 69 | 1001.5 |
| 20260509061008 | 6 | 160 | 0.0 | 0.0 | 0.00 | 0.00 | 0.00 | 67 | 1001.3 |
| 20260509060014 | 6 | 159 | 3.2 | 3.2 | 0.00 | 0.00 | 0.00 | 66 | 1001.7 |
| 20260509054013 | 7 | 150 | 3.2 | 3.2 | 0.00 | 0.00 | 0.00 | 64 | 1001.6 |
| 20260509053011 | 7 | 161 | 0.0 | 0.0 | 0.00 | 0.00 | 0.00 | 64 | 1001.9 |
| 20260509052032 | 8 | 158 | 3.2 | 3.2 | 0.00 | 0.00 | 0.00 | 62 | 1002.0 |
| 20260509051023 | 8 | 152 | 1.6 | 3.2 | 0.00 | 0.00 | 0.00 | 62 | 1002.3 |
| 20260509050013 | 8 | 154 | 4.8 | 6.4 | 0.00 | 0.00 | 0.00 | 59 | 1002.2 |
| 20260509045018 | 8 | 144 | 3.2 | 3.2 | 0.00 | 0.00 | 0.00 | 61 | 1002.2 |
| 20260509044019 | 8 | 144 | 1.6 | 3.2 | 0.00 | 0.00 | 0.00 | 60 | 1002.2 |
| 20260509043044 | 8 | 142 | 4.8 | 6.4 | 0.00 | 0.00 | 0.00 | 61 | 1002.6 |
| 20260509042006 | 8 | 164 | 1.6 | 3.2 | 0.00 | 0.00 | 0.00 | 62 | 1002.5 |
| 20260509041016 | 8 | 158 | 1.6 | 3.2 | 0.00 | 0.00 | 0.00 | 61 | 1002.5 |
| 20260509040019 | 8 | 155 | 0.0 | 0.0 | 0.00 | 0.00 | 0.10 | 62 | 1002.3 |
| 20260509035020 | 8 | 154 | 0.0 | 0.0 | 0.00 | 0.00 | 0.10 | 61 | 1002.6 |
| 20260509034011 | 7 | 158 | 3.2 | 3.2 | 0.00 | 0.00 | 0.10 | 63 | 1002.5 |
| 20260509033009 | 8 | 152 | 0.0 | 0.0 | 0.00 | 0.00 | 0.10 | 63 | 1002.6 |
| 20260509032028 | 8 | 158 | 0.0 | 0.0 | 0.00 | 0.00 | 0.10 | 63 | 1002.2 |
| 20260509031017 | 8 | 158 | 1.6 | 3.2 | 0.00 | 0.00 | 0.10 | 62 | 1002.5 |
| 20260509030028 | 8 | 162 | 0.0 | 0.0 | 0.00 | 0.00 | 0.10 | 60 | 1002.6 |
| 20260509025035 | 8 | 200 | 6.4 | 8.0 | 0.00 | 0.00 | 0.10 | 61 | 1002.6 |
| 20260509024018 | 8 | 164 | 3.2 | 4.8 | 0.00 | 0.00 | 0.10 | 63 | 1002.6 |
| 20260509023031 | 8 | 158 | 3.2 | 3.2 | 0.00 | 0.00 | 0.10 | 63 | 1002.6 |
| 20260509022004 | 7 | 141 | 1.6 | 3.2 | 0.00 | 0.00 | 0.10 | 66 | 1002.7 |
| 20260509021032 | 7 | 177 | 0.0 | 0.0 | 0.00 | 0.00 | 0.10 | 69 | 1002.6 |
| 20260509020021 | 7 | 165 | 0.0 | 0.0 | 0.00 | 0.00 | 0.10 | 69 | 1002.7 |
| 20260509015025 | 7 | 154 | 0.0 | 0.0 | 0.00 | 0.00 | 0.10 | 67 | 1002.8 |
| 20260509014002 | 6 | 153 | 1.6 | 3.2 | 0.00 | 0.00 | 0.10 | 68 | 1002.8 |
| 20260509013044 | 7 | 153 | 1.6 | 3.2 | 0.00 | 0.00 | 0.10 | 69 | 1002.7 |
| 20260509012035 | 6 | 153 | 0.0 | 0.0 | 0.00 | 0.00 | 0.10 | 69 | 1002.4 |
| 20260509011008 | 6 | 153 | 0.0 | 0.0 | 0.00 | 0.00 | 0.10 | 71 | 1002.4 |
| 20260509010028 | 7 | 153 | 1.6 | 3.2 | 0.00 | 0.00 | 0.10 | 68 | 1002.4 |
| 20260509005027 | 7 | 153 | 1.6 | 3.2 | 0.00 | 0.00 | 0.10 | 67 | 1001.6 |
| 20260509004014 | 8 | 153 | 1.6 | 3.2 | 0.00 | 0.00 | 0.10 | 66 | 1002.0 |
| 20260509003031 | 8 | 152 | 1.6 | 3.2 | 0.00 | 0.00 | 0.10 | 64 | 1001.7 |
| 20260509002006 | 8 | 151 | 0.0 | 0.0 | 0.00 | 0.00 | 0.10 | 62 | 1001.6 |
| 20260509001009 | 9 | 148 | 1.6 | 3.2 | 0.00 | 0.00 | 0.10 | 59 | 1001.7 |
| 20260509000020 | 10 | 140 | 1.6 | 3.2 | 0.00 | 0.00 | 0.10 | 58 | 1001.5 |
| 20260508235001 | 10 | 140 | 0.0 | 0.0 | 0.00 | 0.00 | 0.10 | 56 | 1001.8 |
| 20260508234013 | 10 | 160 | 1.6 | 3.2 | 0.00 | 0.00 | 0.10 | 55 | 1001.6 |
| 20260508233037 | 10 | 177 | 0.0 | 0.0 | 0.00 | 0.00 | 0.10 | 55 | 1001.5 |
| 20260508232019 | 10 | 158 | 0.0 | 0.0 | 0.00 | 0.00 | 0.10 | 51 | 1001.2 |
| 20260508230035 | 12 | 122 | 1.6 | 3.2 | 0.00 | 0.00 | 0.10 | 45 | 1001.5 |
| 20260508224010 | 12 | 134 | 0.0 | 0.0 | 0.00 | 0.00 | 0.10 | 41 | 1001.5 |
| 20260508223032 | 12 | 178 | 0.0 | 0.0 | 0.00 | 0.00 | 0.10 | 46 | 1001.4 |
| 20260508222023 | 12 | 129 | 1.6 | 3.2 | 0.00 | 0.00 | 0.10 | 48 | 1001.4 |
| 20260508221035 | 12 | 142 | 1.6 | 3.2 | 0.00 | 0.00 | 0.10 | 44 | 1001.7 |
| 20260508220042 | 12 | 168 | 1.6 | 3.2 | 0.00 | 0.00 | 0.10 | 49 | 1001.5 |
| 20260508215036 | 12 | 156 | 0.0 | 0.0 | 0.00 | 0.00 | 0.10 | 47 | 1001.5 |
| 20260508214011 | 12 | 185 | 1.6 | 3.2 | 0.00 | 0.00 | 0.10 | 47 | 1001.5 |
| 20260508213033 | 12 | 102 | 3.2 | 4.8 | 0.00 | 0.00 | 0.10 | 50 | 1001.7 |
| 20260508212012 | 13 | 93 | 3.2 | 4.8 | 0.00 | 0.00 | 0.10 | 44 | 1001.8 |
| 20260508210039 | 13 | 192 | 0.0 | 0.0 | 0.00 | 0.00 | 0.10 | 44 | 1001.7 |
| 20260508205006 | 14 | 190 | 0.0 | 0.0 | 0.00 | 0.00 | 0.10 | 44 | 1002.1 |
| 20260508204003 | 13 | 270 | 4.8 | 6.4 | 0.00 | 0.00 | 0.10 | 44 | 1001.9 |
| 20260508203019 | 13 | 241 | 4.8 | 6.4 | 0.00 | 0.00 | 0.10 | 40 | 1002.1 |
| 20260508202016 | 12 | 188 | 1.6 | 3.2 | 0.00 | 0.00 | 0.10 | 50 | 1002.4 |
| 20260508201003 | 13 | 327 | 3.2 | 4.8 | 0.00 | 0.00 | 0.10 | 45 | 1002.3 |
| 20260508200027 | 14 | 198 | 1.6 | 3.2 | 0.00 | 0.00 | 0.10 | 43 | 1002.5 |
| 20260508195019 | 12 | 198 | 0.0 | 0.0 | 0.00 | 0.00 | 0.10 | 51 | 1002.5 |
| 20260508194035 | 14 | 268 | 3.2 | 4.8 | 0.00 | 0.00 | 0.10 | 43 | 1002.5 |
| 20260508192018 | 11 | 185 | 3.2 | 3.2 | 0.00 | 0.00 | 0.10 | 51 | 1003.0 |
| 20260508191004 | 12 | 185 | 0.0 | 0.0 | 0.00 | 0.00 | 0.10 | 58 | 1002.9 |
| 20260508190032 | 11 | 213 | 3.2 | 4.8 | 0.00 | 0.00 | 0.10 | 49 | 1003.1 |
| 20260508184018 | 11 | 229 | 3.2 | 3.2 | 0.00 | 0.00 | 0.10 | 57 | 1003.0 |
| 20260508182013 | 12 | 63 | 4.8 | 6.4 | 0.00 | 0.00 | 0.10 | 53 | 1003.1 |
| 20260508181007 | 12 | 353 | 4.8 | 6.4 | 0.00 | 0.00 | 0.10 | 62 | 1003.0 |
| 20260508180021 | 10 | 173 | 4.8 | 4.8 | 0.00 | 0.00 | 0.10 | 61 | 1003.3 |
| 20260508175042 | 10 | 231 | 4.8 | 4.8 | 0.00 | 0.00 | 0.10 | 65 | 1003.5 |
| 20260508174041 | 11 | 157 | 1.6 | 3.2 | 0.00 | 0.00 | 0.10 | 59 | 1003.4 |
| 20260508173006 | 12 | 197 | 3.2 | 4.8 | 0.00 | 0.00 | 0.10 | 71 | 1003.6 |
| 20260508171013 | 10 | 198 | 3.2 | 3.2 | 0.00 | 0.00 | 0.10 | 62 | 1003.8 |
| 20260508170017 | 11 | 223 | 4.8 | 6.4 | 0.00 | 0.00 | 0.10 | 64 | 1003.6 |
| 20260508164031 | 8 | 51 | 3.2 | 4.8 | 0.00 | 0.00 | 0.10 | 69 | 1003.9 |
| 20260508163027 | 10 | 179 | 1.6 | 3.2 | 0.00 | 0.00 | 0.10 | 72 | 1004.1 |
| 20260508162032 | 8 | 162 | 4.8 | 6.4 | 0.00 | 0.00 | 0.10 | 70 | 1004.1 |
| 20260508161006 | 8 | 226 | 3.2 | 4.8 | 0.00 | 0.00 | 0.10 | 75 | 1004.2 |
| 20260508160021 | 8 | 195 | 3.2 | 3.2 | 0.00 | 0.00 | 0.10 | 75 | 1004.2 |
| 20260508155013 | 9 | 208 | 3.2 | 3.2 | 0.00 | 0.00 | 0.10 | 75 | 1004.0 |
| 20260508153017 | 10 | 160 | 9.7 | 11.3 | 0.00 | 0.00 | 0.10 | 74 | 1003.9 |
| 20260508152012 | 8 | 85 | 3.2 | 3.2 | 0.00 | 0.00 | 0.10 | 76 | 1004.2 |
| 20260508151024 | 9 | 196 | 1.6 | 4.8 | 0.00 | 0.00 | 0.10 | 79 | 1004.0 |
| 20260508150036 | 8 | 205 | 3.2 | 4.8 | 0.00 | 0.00 | 0.10 | 79 | 1003.8 |
| 20260508145025 | 8 | 126 | 1.6 | 4.8 | 0.00 | 0.00 | 0.10 | 80 | 1004.0 |
| 20260508144030 | 7 | 186 | 1.6 | 3.2 | 0.00 | 0.00 | 0.10 | 80 | 1004.1 |
| 20260508143033 | 7 | 192 | 3.2 | 3.2 | 0.00 | 0.00 | 0.10 | 81 | 1004.3 |
| 20260508141028 | 7 | 228 | 6.4 | 8.0 | 0.00 | 0.00 | 0.10 | 85 | 1004.2 |
| 20260508140037 | 5 | 182 | 0.0 | 0.0 | 0.00 | 0.00 | 0.10 | 88 | 1004.1 |
| 20260508135041 | 5 | 191 | 1.6 | 3.2 | 0.00 | 0.00 | 0.10 | 89 | 1003.9 |
| 20260508134016 | 5 | 174 | 1.6 | 3.2 | 0.00 | 0.00 | 0.10 | 89 | 1004.4 |
| 20260508133005 | 6 | 169 | 0.0 | 0.0 | 0.00 | 0.00 | 0.10 | 91 | 1004.0 |
| 20260508132008 | 5 | 205 | 1.6 | 3.2 | 0.00 | 0.00 | 0.10 | 91 | 1004.1 |
| 20260508131005 | 5 | 173 | 0.0 | 0.0 | 0.13 | 0.00 | 0.10 | 91 | 1004.4 |
| 20260508130005 | 5 | 174 | 1.6 | 3.2 | 0.00 | 0.00 | 0.08 | 91 | 1004.1 |
| 20260508125014 | 5 | 212 | 1.6 | 3.2 | 0.18 | 0.00 | 0.08 | 91 | 1004.1 |
| 20260508124041 | 5 | 184 | 0.0 | 0.0 | 0.13 | 0.00 | 0.05 | 88 | 1004.3 |
| 20260508122034 | 5 | 183 | 1.6 | 3.2 | 0.00 | 0.00 | 0.03 | 86 | 1003.6 |
| 20260508121005 | 5 | 216 | 3.2 | 4.8 | 0.18 | 0.00 | 0.03 | 87 | 1003.5 |
| 20260508115012 | 5 | 168 | 0.0 | 0.0 | 0.00 | 0.00 | 0.00 | 89 | 1003.2 |
| 20260508113002 | 5 | 215 | 3.2 | 4.8 | 0.00 | 0.00 | 0.00 | 90 | 1003.0 |